TimeEST,TemperatureF,Dew PointF,Humidity,Sea Level PressureIn,VisibilityMPH,Wind Direction,Wind SpeedMPH,Gust SpeedMPH,PrecipitationIn,Events,Conditions,WindDirDegrees,DateUTC
12:52 AM,39.0,23.0,53,30.16,10.0,North,10.4,-,N/A,,Clear,350,2013-03-09 05:52:00
1:52 AM,37.0,23.0,57,30.15,10.0,North,12.7,-,N/A,,Clear,350,2013-03-09 06:52:00
2:52 AM,36.0,23.0,59,30.14,10.0,North,10.4,-,N/A,,Clear,350,2013-03-09 07:52:00
3:52 AM,34.0,23.0,64,30.16,10.0,NNW,9.2,-,N/A,,Clear,340,2013-03-09 08:52:00
4:52 AM,33.1,23.0,66,30.18,10.0,NNW,8.1,-,N/A,,Clear,340,2013-03-09 09:52:00
5:52 AM,32.0,21.9,66,30.21,10.0,NW,6.9,-,N/A,,Clear,320,2013-03-09 10:52:00
6:52 AM,33.1,21.9,64,30.22,10.0,NNW,8.1,-,N/A,,Clear,340,2013-03-09 11:52:00
7:52 AM,35.6,23.0,60,30.22,10.0,North,11.5,-,N/A,,Clear,350,2013-03-09 12:52:00
8:52 AM,39.9,21.9,49,30.24,10.0,North,10.4,-,N/A,,Clear,10,2013-03-09 13:52:00
9:52 AM,44.1,21.9,42,30.24,10.0,North,10.4,-,N/A,,Clear,350,2013-03-09 14:52:00
10:52 AM,45.0,21.9,40,30.24,10.0,NNW,9.2,-,N/A,,Clear,340,2013-03-09 15:52:00
11:52 AM,48.9,21.9,35,30.23,10.0,NNW,6.9,-,N/A,,Clear,340,2013-03-09 16:52:00
12:52 PM,52.0,19.0,27,30.22,10.0,North,10.4,-,N/A,,Clear,350,2013-03-09 17:52:00
1:52 PM,54.0,19.0,25,30.20,10.0,North,8.1,-,N/A,,Clear,10,2013-03-09 18:52:00
2:52 PM,46.9,25.0,42,30.21,10.0,SSE,6.9,-,N/A,,Clear,160,2013-03-09 19:52:00
3:52 PM,50.0,25.0,38,30.22,10.0,SSW,3.5,-,N/A,,Clear,200,2013-03-09 20:52:00
4:52 PM,48.9,28.0,44,30.23,10.0,SW,3.5,-,N/A,,Clear,220,2013-03-09 21:52:00
5:52 PM,46.0,28.9,51,30.25,10.0,Calm,Calm,-,N/A,,Clear,0,2013-03-09 22:52:00
6:52 PM,42.8,30.2,61,30.27,10.0,Calm,Calm,-,N/A,,Clear,0,2013-03-09 23:52:00
7:52 PM,42.1,30.9,65,30.28,10.0,Calm,Calm,-,N/A,,Clear,0,2013-03-10 00:52:00
8:52 PM,39.0,32.0,76,30.30,10.0,NNE,3.5,-,N/A,,Clear,30,2013-03-10 01:52:00
9:52 PM,37.0,32.0,82,30.31,10.0,SE,5.8,-,N/A,,Clear,130,2013-03-10 02:52:00
10:52 PM,35.6,30.2,81,30.33,10.0,Calm,Calm,-,N/A,,Clear,0,2013-03-10 03:52:00
11:52 PM,33.1,28.9,85,30.35,10.0,Calm,Calm,-,N/A,,Clear,0,2013-03-10 04:52:00